Regional Weather Roundup
Issued by NWS Bismarck, ND

Home | Current Version | Previous Version | Text Only | Print | Product List | Glossary On
Versions: 1 2 3 4 5 6 7 8 9 10 11 12 13 14 15 16 17 18 19 20 21 22 23 24 25 26 27 28 29 30 31 32 33 34 35 36 37 38 39 40 41 42 43 44 45 46 47 48 49 50
000
ASUS43 KBIS 020001
RWRBIS

NWR BROADCAST TEXT
NATIONAL WEATHER SERVICE BISMARCK ND
600 PM CST SUN FEB 01 2015

NOTE: "FAIR" INDICATES FEW OR NO CLOUDS BELOW 12,000 FEET WITH NO
SIGNIFICANT WEATHER AND/OR OBSTRUCTIONS TO VISIBILITY.


CITY           SKY/WX    TMP DP  RH WIND       PRES   REMARKS
WILLISTON      CLEAR      7  -3  64 S7        30.21F WCI  -5
MINOT          CLEAR      2 -10  57 S6        30.26F WCI  -9
MINOT AFB      CLEAR      2  -6  67 S8        30.25F WCI -12
BISMARCK       CLEAR      2 -13  49 CALM      30.34F
DICKINSON      CLEAR      1  -6  72 S8        30.17F WCI -13
GARRISON         N/A     -3 -11  68 S3        30.26F
HETTINGER ARPT CLEAR      2  -2  83 S6        30.21F WCI  -9
JAMESTOWN      CLEAR      0 -11  59 W7        30.35F WCI -13
CARRINGTON     FAIR       0 -11  60 MISG      30.34F
CROSBY         FAIR       5   0  78 S12       30.19F WCI -11
HAZEN          FAIR      -2 -15  55 S7        30.30F WCI -16
LINTON         FAIR       0 -11  60 CALM      30.34S
OAKES            N/A      3  -8  60 NW9       30.38S WCI -11
WATFORD CITY   FAIR       5  -6  61 S6        30.19F WCI  -6
$$

CITY           SKY/WX    TMP DP  RH WIND       PRES   REMARKS
GRAND FORKS    CLEAR     -1 -11  62 E6        30.41F WCI -13
GRAND FORKS AF CLEAR      0 -15  49 CALM      30.40F
DEVILS LAKE    CLEAR      0 -15  50 W7        30.32F WCI -13
FARGO          CLEAR      1 -12  54 N8        30.42S WCI -13
GWINNER        CLEAR      5  -9  51 N7        30.39S WCI  -7
$$

CITY           SKY/WX    TMP DP  RH WIND       PRES   REMARKS
ABERDEEN       CLEAR      4  -9  55 N8        30.40R WCI  -9
MOBRIDGE       CLEAR      3 -11  52 NW3       30.32F
BUFFALO          N/A     11   3  70 SW7       30.10F WCI   0
RAPID CITY     CLEAR     10   5  80 SE5       30.21F WCI   2
GLASGOW        CLEAR     10   3  73 SE14      30.07F WCI  -6
SIDNEY         CLEAR      5 -18  33 S6        30.22F WCI  -6
WOLF POINT     CLEAR     13   4  67 CALM      30.15F
GLENDIVE       CLEAR      9   1  72 CALM      30.16F
MILES CITY     CLEAR     15   7  70 SE9       30.10F WCI   3
BAKER          CLEAR      9   2  73 S5        30.14F WCI   1
$$

CITY           SKY/WX    TMP DP  RH WIND       PRES   REMARKS
BILLINGS       CLOUDY    20  13  74 NE3       30.01F
GREAT FALLS    CLOUDY    31  22  69 SW18      29.87F WCI  19
$$




USA.gov is the U.S. government's official web portal to all federal, state and local government web resources and services.